Theta_e
308 309 311 311 311 310 310 310 310 311 312 313 314 314 315 316 318 316 312 312 313 316 317 318 318 318 319 315 309 304 305 307 311 313 316 313 315 314 313 315 314 315 315 315 325
307 309 309 309 310 310 310 311 311 311 312 313 314 315 315 317 319 314 315 316 316 317 318 317 317 317 311 312 310 306 305 308 308 311 315 314 314 314 316 314 316 315 315 316 318
302 306 310 310 311 311 312 312 312 312 312 313 314 315 316 319 314 314 317 317 318 318 318 317 317 314 313 311 312 308 311 310 312 312 313 314 314 314 315 315 314 314 314 314 315
302 302 305 310 311 312 312 313 312 312 313 313 314 314 317 321 315 317 316 316 318 319 317 315 312 313 312 314 311 315 313 314 315 315 313 314 314 314 314 313 313 312 313 313 313
301 302 303 305 311 312 312 313 313 312 313 313 314 314 319 318 318 318 318 319 319 319 317 314 314 313 314 313 313 315 315 314 314 312 311 313 313 313 313 311 311 311 312 312 311
301 301 302 303 307 312 312 313 314 313 313 313 313 314 316 317 319 318 318 318 319 319 317 315 316 314 313 314 314 314 314 313 314 314 314 316 315 313 316 312 312 313 312 312 312
301 302 302 303 304 310 312 313 313 314 313 313 314 315 315 315 320 319 318 318 318 319 318 317 316 316 314 317 314 314 316 312 315 314 315 314 316 316 315 313 314 314 313 312 312
302 302 303 304 305 307 312 313 313 313 315 314 315 317 314 318 321 321 320 319 318 318 318 318 317 315 316 315 313 313 312 313 314 312 314 315 314 314 313 314 314 314 314 313 312
304 303 303 304 305 306 312 314 315 317 316 315 316 317 316 319 319 321 320 318 318 317 317 316 315 313 314 315 313 310 314 314 313 312 314 316 315 314 313 313 313 312 312 312 312
306 306 304 304 305 306 313 316 318 318 318 320 319 319 318 320 320 318 319 317 317 315 315 315 311 314 312 314 315 315 313 312 313 313 314 315 313 312 312 312 312 312 312 311 311
305 307 307 306 305 308 315 316 314 314 316 317 315 318 317 318 319 319 317 316 315 313 315 313 313 315 314 314 314 314 313 313 312 311 315 314 313 313 313 312 312 311 311 311 311
304 305 308 308 306 311 317 313 316 316 316 315 315 315 317 320 319 319 319 317 315 315 314 313 315 314 314 314 315 313 314 313 312 313 314 314 314 313 313 313 314 313 312 312 313
304 304 306 309 308 316 314 317 318 317 317 316 315 316 316 318 318 319 315 314 315 315 314 315 316 315 317 317 317 315 314 314 315 314 314 314 313 313 314 315 316 315 313 311 309
307 306 305 309 312 310 315 318 318 318 321 323 324 320 317 317 319 318 316 315 315 315 314 315 314 316 316 317 315 318 314 314 316 316 316 314 316 312 313 314 317 314 311 311 311
310 308 307 307 307 313 317 318 318 321 322 324 322 319 314 317 316 317 315 315 315 315 315 315 316 315 316 316 315 316 314 315 316 316 314 313 314 313 313 318 319 316 313 315 314
307 309 307 308 309 312 315 318 319 318 323 329 318 318 315 316 315 316 316 314 314 315 315 314 314 315 315 316 315 314 315 311 309 310 316 313 315 314 314 319 318 317 316 317 315
306 308 306 306 308 314 314 314 308 316 318 321 317 316 315 316 315 315 316 316 315 316 316 314 315 316 316 317 315 313 313 316 316 312 317 313 315 314 313 315 317 316 316 316 315
307 308 312 314 316 312 316 314 313 310 324 320 317 316 317 316 316 318 315 315 314 314 314 316 318 318 317 316 316 316 314 316 321 317 315 314 317 315 313 312 315 316 314 314 315
305 308 311 313 315 314 310 313 306 312 320 316 317 317 316 318 316 317 317 315 315 314 317 318 319 317 317 316 315 315 315 311 315 313 314 314 314 314 313 316 317 316 315 314 313
300 301 309 312 317 314 310 309 311 317 317 318 318 317 316 314 316 317 317 316 318 317 314 316 319 316 317 316 315 314 311 315 311 319 320 316 316 317 317 317 316 316 314 314 312
299 300 306 313 317 310 315 313 315 315 317 318 317 316 315 315 316 316 315 316 317 317 315 315 316 317 317 317 316 315 315 312 312 312 318 320 316 312 313 314 314 312 312 311 310
295 300 305 312 312 306 310 310 313 316 313 313 314 314 314 315 317 318 318 317 317 316 317 315 314 317 318 315 314 314 315 313 314 317 314 316 317 316 313 312 313 312 311 309 308
294 295 305 310 311 308 307 309 312 312 310 313 314 314 313 315 316 316 317 317 316 315 316 315 314 315 316 314 313 316 315 313 311 310 316 317 317 314 313 312 311 310 309 309 309
296 301 304 302 303 305 307 307 308 307 310 310 311 312 311 311 313 315 316 318 315 316 320 316 313 315 319 317 313 316 316 315 315 311 317 318 317 316 315 314 313 312 310 309 310
299 303 300 303 303 301 306 306 305 308 309 309 311 310 310 310 310 311 312 310 313 315 317 315 316 315 314 315 316 316 316 316 317 317 319 318 316 315 313 312 313 310 312 312 311
294 295 293 293 298 302 302 302 306 307 307 306 309 307 307 309 311 310 309 309 313 312 313 314 316 318 318 317 317 315 314 315 315 316 316 316 316 313 312 314 314 313 313 313 315
296 296 295 295 299 303 302 305 305 302 302 305 304 302 301 304 306 306 306 308 309 311 313 314 315 317 318 314 313 314 313 313 313 312 312 313 312 315 315 313 313 313 313 313 313
Wind_Speed
15 13 11 11 11 11 11 10 9 9 9 9 9 11 14 16 9 4 1 1 2 7 8 6 4 5 4 3 3 3 5 2 5 5 2 4 4 2 1 4 3 3 3 2 2
19 15 13 12 11 11 11 11 10 9 8 9 10 12 15 13 5 5 4 4 5 9 8 9 5 5 4 3 3 5 4 8 4 3 1 3 1 2 1 1 2 3 2 1 5
23 18 14 12 12 11 11 11 10 9 8 8 10 13 14 6 4 3 2 3 6 9 6 6 4 3 5 2 4 2 4 3 2 4 3 2 3 1 2 4 6 5 6 3 4
25 22 18 13 11 12 12 11 9 7 7 8 11 15 10 3 2 4 2 4 6 7 7 10 6 4 4 3 3 2 1 3 3 2 2 4 2 2 4 9 5 4 3 5 7
29 25 22 16 12 10 10 11 8 6 6 8 10 14 4 3 3 4 3 4 5 6 5 3 6 3 2 2 4 1 1 4 7 7 6 4 6 6 7 8 7 7 7 8 8
32 29 27 21 13 11 9 8 8 6 5 6 9 12 3 2 2 4 7 7 6 4 1 1 2 3 4 0 2 3 3 7 5 3 2 3 2 2 4 5 7 3 10 9 8
35 31 30 25 17 10 9 8 8 7 5 5 7 7 1 8 3 5 6 11 9 6 2 2 4 2 4 1 1 2 5 5 2 4 4 2 4 3 3 5 7 9 9 9 9
37 35 32 29 20 13 10 10 10 10 6 4 5 2 5 4 9 11 10 10 14 15 12 9 3 3 2 1 6 4 4 5 5 7 2 4 6 8 8 5 10 10 8 8 10
39 38 35 31 23 15 10 12 12 5 5 4 1 2 7 5 6 5 7 5 2 2 2 4 4 3 5 4 5 6 0 2 7 2 1 2 6 7 9 8 10 10 9 8 9
41 40 37 34 25 14 10 11 4 2 3 3 1 2 5 3 2 5 8 7 2 2 3 5 5 3 3 4 3 4 1 3 5 5 1 5 8 9 11 7 11 10 9 8 9
43 42 39 37 25 11 9 3 5 3 1 6 5 4 4 8 11 5 5 4 3 6 1 3 4 3 7 7 4 3 3 4 5 6 1 7 7 15 13 6 9 9 8 9 9
44 44 41 38 22 6 4 3 2 3 8 10 13 6 13 1 4 5 6 3 3 2 2 5 3 7 4 2 5 4 3 6 5 4 4 7 12 9 7 6 5 7 8 8 8
46 44 43 37 14 3 5 2 9 3 3 7 4 4 5 11 7 7 8 4 4 2 4 6 6 2 2 1 2 3 5 5 7 2 4 4 8 6 6 4 6 6 6 6 9
48 46 45 37 3 9 5 6 12 4 4 6 3 4 5 7 4 10 12 6 2 8 5 5 2 5 3 5 6 3 6 5 3 3 3 3 5 6 6 9 5 7 8 7 8
46 47 47 24 11 2 2 12 4 2 5 2 2 4 3 6 2 2 4 4 9 8 6 8 4 5 5 6 6 8 2 2 1 1 2 2 1 7 4 5 3 6 6 6 5
47 47 38 12 9 6 8 5 2 5 5 3 3 3 4 3 3 2 3 4 3 5 2 7 2 5 7 1 5 2 3 5 4 3 1 5 5 5 3 4 3 3 4 2 4
49 46 25 11 4 2 10 3 5 4 4 4 3 5 4 3 3 4 4 5 6 3 4 3 4 4 4 4 1 5 6 3 4 3 5 1 1 8 6 7 6 6 5 2 1
49 38 17 10 12 2 3 5 3 3 4 4 6 7 5 2 4 2 2 3 4 3 2 4 6 6 5 6 8 4 7 5 5 4 5 1 6 6 8 8 7 6 6 6 6
45 32 10 26 5 3 5 3 6 3 4 7 8 3 4 2 2 2 2 4 6 7 7 5 5 3 1 3 6 3 4 3 3 2 2 5 7 8 7 7 7 7 5 8 7
34 16 7 25 4 4 4 4 4 4 5 2 2 3 4 4 2 2 2 3 3 3 2 2 3 3 2 3 3 5 7 2 2 3 5 5 5 7 3 8 7 4 6 5 6
10 5 10 26 1 5 2 5 4 6 5 3 3 6 7 6 5 5 4 4 4 3 3 6 5 5 1 6 8 1 1 4 3 5 4 3 6 6 8 5 5 8 7 7 8
7 4 20 24 3 2 2 6 6 6 9 5 5 3 3 4 5 4 7 7 5 6 5 5 5 5 9 3 1 3 7 7 4 4 3 2 9 7 8 5 5 8 8 7 8
3 3 10 12 4 4 5 5 3 7 6 6 5 6 6 4 6 5 6 6 8 8 7 6 2 2 6 5 2 4 4 5 4 3 6 3 7 2 3 6 7 8 9 8 8
3 4 4 5 3 4 5 4 6 5 1 6 5 6 5 6 4 7 9 5 7 3 5 6 6 8 11 7 4 4 5 5 7 4 3 20 24 22 19 17 14 13 10 9 11
4 1 1 5 3 3 2 4 6 4 5 6 2 7 7 5 6 5 5 12 11 5 3 1 6 4 4 4 5 8 11 12 14 17 10 32 21 27 13 9 11 7 6 8 8
3 3 4 3 4 7 3 3 3 4 6 7 5 10 7 8 7 5 8 6 8 10 3 3 4 7 9 15 14 21 18 16 19 22 19 26 33 13 5 0 3 6 7 6 4
5 3 3 4 4 2 3 3 4 11 7 2 7 11 13 11 9 15 14 15 13 11 14 4 1 1 9 2 4 11 14 20 14 15 14 17 18 3 3 5 5 7 7 8 9
Wind_Direction
22 17 15 13 9 5 1 358 356 353 354 360 2 358 349 342 10 50 23 27 359 2 357 10 29 71 91 67 66 123 66 146 191 168 252 314 36 344 300 14 21 21 105 164 9
22 15 9 6 5 1 354 350 347 348 349 353 356 352 346 342 15 39 63 50 10 1 10 31 14 10 50 36 29 79 103 208 204 189 216 276 290 250 119 16 284 328 274 258 157
20 14 8 2 359 359 355 349 347 346 348 349 350 350 351 355 33 294 38 14 358 2 18 52 62 49 62 354 6 157 161 202 167 206 181 237 279 210 149 303 222 221 271 291 202
17 13 5 358 356 354 357 354 352 355 351 349 352 349 346 13 142 253 311 322 348 8 31 46 33 44 64 29 344 104 179 168 262 199 150 223 199 228 199 240 249 277 211 281 285
15 9 5 356 349 352 356 356 355 357 355 349 352 351 355 22 250 188 257 323 349 16 25 48 55 100 91 327 344 65 289 298 275 285 229 199 209 203 243 255 274 282 297 260 246
15 10 4 357 347 341 349 351 349 342 339 339 344 350 11 19 278 252 260 269 279 300 22 105 141 172 116 256 107 312 290 288 294 298 320 14 352 207 294 348 335 315 294 288 234
12 9 4 358 346 335 332 329 329 329 315 319 334 346 72 233 228 268 289 268 274 282 283 276 158 132 128 30 302 291 343 346 300 324 7 345 354 258 334 9 340 325 317 314 298
9 6 3 357 345 331 325 315 312 300 286 298 330 354 245 229 270 272 259 273 269 273 266 259 213 107 51 1 14 34 51 19 293 356 359 78 268 290 313 353 308 305 301 302 293
7 4 0 357 346 332 325 317 319 308 237 269 312 82 272 277 267 286 250 227 275 259 246 108 102 85 26 64 15 8 263 312 317 307 304 54 265 262 296 302 294 284 276 275 281
3 2 359 356 345 336 335 322 346 50 135 84 108 39 280 181 324 311 264 223 207 51 61 50 51 72 44 68 225 243 251 263 253 269 338 307 271 281 272 270 263 270 274 274 265
360 358 356 353 343 337 344 336 16 355 161 214 195 235 288 288 297 250 240 156 84 54 75 9 75 232 242 205 210 190 201 239 261 270 261 259 278 281 285 254 273 268 264 268 265
358 356 353 352 343 339 10 76 165 252 297 245 251 246 244 68 332 281 217 175 129 243 100 19 236 229 240 177 193 222 240 256 277 263 192 286 293 278 296 271 258 293 300 296 291
355 353 351 349 344 354 347 99 327 311 303 297 212 184 197 163 217 258 147 159 163 219 189 165 233 179 239 220 198 242 208 233 226 296 294 316 295 310 299 322 333 349 312 317 288
351 350 349 346 10 341 304 336 335 155 37 282 272 270 133 137 235 220 185 146 165 208 177 230 257 175 186 237 165 228 225 232 263 26 266 58 282 293 294 314 338 342 341 327 339
347 347 342 341 301 239 300 328 336 71 343 231 200 160 140 155 229 196 163 81 199 196 119 244 213 210 222 231 171 228 156 190 329 274 42 308 76 272 328 299 299 320 320 335 355
345 344 340 335 298 267 330 323 100 43 262 335 152 173 137 242 248 123 154 86 145 161 233 238 199 190 213 160 182 130 98 50 54 87 3 234 147 278 249 215 281 285 278 26 40
344 343 337 326 300 305 337 50 42 146 326 343 10 12 339 266 283 188 197 185 185 133 245 312 238 249 159 126 15 78 61 330 335 3 227 214 325 236 242 228 216 217 252 221 177
343 350 11 1 326 332 10 51 195 270 275 350 9 316 223 235 248 302 180 241 208 113 134 201 311 189 179 183 181 171 155 162 246 223 238 345 239 244 223 233 222 226 245 272 266
343 348 7 4 43 127 73 87 219 231 321 352 330 305 305 307 285 352 240 224 203 171 184 171 263 292 166 154 133 179 177 185 119 32 48 232 294 307 254 264 229 248 255 261 303
340 332 352 3 17 24 76 230 247 227 328 330 243 248 273 272 290 277 239 229 201 167 127 207 294 241 216 83 26 161 162 75 20 270 255 269 254 229 273 234 229 262 253 273 286
356 359 357 360 281 50 168 238 320 315 350 280 254 262 253 252 224 220 245 292 194 188 186 158 158 270 152 202 185 147 212 71 138 159 219 293 254 224 219 237 274 273 259 267 289
360 346 350 352 46 38 38 329 312 344 18 331 328 323 280 323 295 258 229 221 176 161 197 204 166 207 213 252 24 176 202 157 147 233 232 210 271 219 211 189 203 258 259 264 247
11 276 343 4 46 21 329 320 293 355 345 349 311 8 2 298 314 242 243 256 241 184 187 183 202 343 331 347 23 200 195 154 108 69 203 183 256 190 287 269 276 257 276 256 261
40 359 328 30 33 72 350 293 324 327 177 357 288 43 353 348 322 315 306 314 333 281 191 158 181 175 238 215 172 197 179 192 162 169 216 252 280 266 271 279 276 276 280 297 288
26 49 157 332 334 319 252 277 289 338 5 342 311 47 1 300 314 358 350 332 318 286 291 279 250 206 266 291 275 245 241 232 233 248 233 269 261 274 283 268 269 259 293 287 297
57 26 350 278 302 341 349 295 315 14 351 316 341 340 320 288 271 286 308 318 277 324 253 136 254 264 271 273 270 259 246 240 241 246 249 255 272 281 307 35 273 291 299 305 302
34 38 112 278 328 354 257 358 324 341 286 297 342 326 316 297 309 292 273 258 244 272 286 296 267 276 265 258 292 277 221 221 229 239 233 244 264 77 317 315 281 284 275 276 273